Location: Schommer Observatory
(40.5200°N, 74.4500°W)
Time: 04:29:42
(UTC-05:00)

N. Korean satellite - Pass Details

Date: 16 November 2017
Orbit: 460 x 515 km, 97.2° (Epoch: 19 November)

Event Time Altitude Azimuth Distance (km) Brightness Sun altitude
Rises 05:49:52 0° 30° (NNE) 2,604 10.5 -10.8°
Reaches altitude 10° 05:52:33 10° 52° (NE) 1,724 9.9 -10.3°
Maximum altitude 05:55:00 17° 93° (E) 1,352 10.1 -9.8°
Drops below altitude 10° 05:57:29 10° 135° (SE) 1,727 10.4 -9.4°
Sets 06:00:10 0° 156° (SSE) 2,613 10.9 -8.9°
